GSAT0205 (GALILEO 9)

Last updated on Thu Nov 21 2024 00:02:30 GMT+0000 (Coordinated Universal Time)

1 40889U 15045A 24324.38356794 -.00000013 00000+0 00000+0 0 9997 2 40889 55.1506 237.4841 0005263 30.4286 329.6488 1.70472877 57219
UTC large
Height (km)
Speed (km/s)
/
Latitude / Longitude
Inclination (degrees)
Orbital Period (minutes)
Azimuth
Elevation
Range (km)
Doppler Factor

Next 0 passes for location: London (51.5072 / 0.1276)

Sorry there are no passes over London.